Weather History for Wink, TX

Change the Weather History Date:

Tuesday, February 14, 2012

  Actual Average Record
Temperature  
Mean Temperature 52 °F -  
Max Temperature 73 °F 67 °F 85 °F (1954)
Min Temperature 30 °F 36 °F 19 °F (1963)
Degree Days  
Heating Degree Days 14    
Growing Degree Days 2 (Base 50)    
Moisture  
Dew Point 29 °F    
Average Humidity 47    
Maximum Humidity 89    
Minimum Humidity 17    
Precipitation  
Precipitation 0.00 in - - ()
Sea Level Pressure  
Sea Level Pressure 29.78 in    
Wind  
Wind Speed 6 mph (WSW)    
Max Wind Speed 15 mph    
Max Gust Speed 22 mph    
Visibility 10 miles    
Events Rain    
Averages and records for this station are not official NWS values.
T = Trace of Precipitation, MM = Missing Value Source: NWS Daily Summary

Daily Weather History Graph

Daily Weather History Graph

Search for Another Location

Airport:

Trip Planner

Search our weather history database for the weather conditions in past years. The results will help you decide how hot, cold, wet, or windy it might be!

Date:

Astronomy

Feb. 14, 2012 Rise Set
Actual Time 7:36 AM CST 6:38 PM CST
Civil Twilight 7:11 AM CST 7:03 PM CST
Nautical Twilight 6:42 AM CST 7:31 PM CST
Astronomical Twilight 6:14 AM CST 8:00 PM CST
Moon 1:15 AM CST (2/14) 11:54 AM CST (2/14)
Length of Visible Light 11h 52m
Length of Day
11h 02m
Waning Gibbous, 50% of the Moon is Illuminated
Feb 14
Waning Gibbous
Feb 21
New
Feb 29
First Quarter
Mar 8
Full
Mar 14
Last Quarter

Hourly Weather History & Observations

Time (CST) Temp. Windchill Dew Point Humidity Pressure Visibility Wind Dir Wind Speed Gust Speed Precip Events Conditions
12:53 AM 42.1 °F 40.2 °F 28.0 °F 58% 29.82 in 10.0 mi WNW 3.5 mph - N/A   Clear
1:53 AM 39.0 °F 34.8 °F 28.0 °F 65% 29.81 in 10.0 mi North 5.8 mph - N/A   Clear
2:53 AM 36.0 °F 31.1 °F 28.9 °F 76% 29.79 in 10.0 mi North 5.8 mph - N/A   Clear
3:53 AM 34.0 °F - 28.9 °F 82% 29.81 in 10.0 mi Calm Calm - N/A   Clear
4:53 AM 35.1 °F - 28.9 °F 78% 29.81 in 10.0 mi Calm Calm - N/A   Clear
5:53 AM 32.0 °F 27.5 °F 28.0 °F 85% 29.82 in 10.0 mi East 4.6 mph - N/A   Clear
6:53 AM 30.9 °F 27.5 °F 28.0 °F 89% 29.84 in 10.0 mi NNE 3.5 mph - N/A   Clear
7:53 AM 30.9 °F 27.5 °F 28.0 °F 89% 29.85 in 10.0 mi SE 3.5 mph - N/A   Clear
8:53 AM 39.9 °F 36.7 °F 32.0 °F 73% 29.87 in 10.0 mi NNW 4.6 mph - N/A   Clear
9:53 AM 46.9 °F - 33.1 °F 59% 29.86 in 10.0 mi Calm Calm - N/A   Clear
10:53 AM 57.9 °F - 32.0 °F 37% 29.84 in 10.0 mi South 5.8 mph - N/A   Clear
11:53 AM 64.4 °F - 30.2 °F 28% 29.87 in 10.0 mi SSW 5.8 mph - N/A   Clear
12:53 PM 66.9 °F - 28.0 °F 23% 29.78 in 10.0 mi SW 6.9 mph - N/A   Clear
1:53 PM 72.0 °F - 28.0 °F 20% 29.72 in 10.0 mi South 15.0 mph 21.9 mph N/A   Clear
2:53 PM 72.0 °F - 28.0 °F 20% 29.70 in 10.0 mi SSW 8.1 mph 18.4 mph N/A   Clear
3:53 PM 73.0 °F - 27.0 °F 18% 29.69 in 10.0 mi WSW 12.7 mph 18.4 mph N/A   Scattered Clouds
4:53 PM 71.1 °F - 24.1 °F 17% 29.69 in 10.0 mi WSW 9.2 mph - N/A   Partly Cloudy
5:53 PM 70.0 °F - 23.0 °F 17% 29.70 in 10.0 mi WSW 10.4 mph - N/A   Mostly Cloudy
6:53 PM 66.9 °F - 28.9 °F 24% 29.73 in 10.0 mi WSW 12.7 mph 19.6 mph 0.00 in   Clear
7:53 PM 64.0 °F - 28.9 °F 27% 29.75 in 10.0 mi WSW 10.4 mph - N/A   Mostly Cloudy
8:53 PM 63.0 °F - 32.0 °F 31% 29.77 in 10.0 mi WSW 9.2 mph - 0.00 in Rain Light Rain
9:53 PM 62.1 °F - 34.0 °F 35% 29.77 in 10.0 mi West 10.4 mph - 0.00 in   Mostly Cloudy
10:53 PM 57.9 °F - 33.1 °F 39% 29.78 in 10.0 mi West 6.9 mph - N/A   Clear
11:53 PM 55.9 °F - 32.0 °F 40% 29.77 in 10.0 mi West 13.8 mph - N/A   Scattered Clouds